Weather reports worldwide

Advertisment
Tortosa, Spain (8238): temperature & dewpoint: 09.09.2019 10:00:00 - 15.09.2019 10:00:00 (CEST)Tortosa, Spain (8238): wind speed: 09.09.2019 10:00:00 - 15.09.2019 10:00:00 (CEST)Tortosa, Spain (8238): wind direction: 09.09.2019 10:00:00 - 15.09.2019 10:00:00 (CEST)Tortosa, Spain (8238): reduced air pressure: 09.09.2019 10:00:00 - 15.09.2019 10:00:00 (CEST)Tortosa, Spain (8238): visibility: 09.09.2019 10:00:00 - 15.09.2019 10:00:00 (CEST)Tortosa, Spain (8238): precipitation: 09.09.2019 10:00:00 - 15.09.2019 10:00:00 (CEST)
Date & Time tt [°C] td [°C] ff [km/h] ff [kn] dd ppp [hPa] vv [km] rr [mm]
15.09.2019 10:00:00 - - - - - - - -
15.09.2019 09:00:00 20,2 16,8 4 2 ESE 1022,2 20 0,0
15.09.2019 08:00:00 18,0 16,3 8 4 NW 1022,2 12 -
15.09.2019 07:00:00 18,5 16,7 9 5 NNW 1021,8 15 0,0
15.09.2019 06:00:00 18,9 16,9 4 2 NW 1022,1 16 0,0
15.09.2019 05:00:00 20,0 17,2 5 3 NW 1022,1 18 -
15.09.2019 04:00:00 20,7 17,3 5 3 SW 1023,0 20 0,0
15.09.2019 03:00:00 20,2 17,0 9 5 SW 1023,7 19 0,0
15.09.2019 02:00:00 21,0 17,4 4 2 SSW 1023,5 19 -
15.09.2019 01:00:00 21,4 17,4 5 3 WNW 1023,5 20 0,0
15.09.2019 00:00:00 21,4 16,8 11 6 SSW 1024,1 20 0,0
14.09.2019 23:00:00 21,6 15,0 8 4 SSW 1023,4 20 -
14.09.2019 22:00:00 22,4 15,7 5 3 WSW 1023,3 20 0,0
14.09.2019 21:00:00 23,6 15,4 5 3 S 1022,9 20 0,0
14.09.2019 20:00:00 25,0 15,3 4 2 SSE 1022,9 15 -
14.09.2019 19:00:00 26,4 12,8 9 5 E 1022,8 20 0,0
14.09.2019 18:00:00 27,9 12,3 9 5 ENE 1022,6 20 0,0
14.09.2019 17:00:00 27,6 13,2 9 5 ESE 1023,2 10 -
14.09.2019 16:00:00 26,6 12,3 13 7 E 1023,9 20 0,0
14.09.2019 15:00:00 27,7 12,9 15 8 E 1024,3 20 0,0
14.09.2019 14:00:00 24,9 16,6 4 2 S 1024,8 15 -
14.09.2019 13:00:00 20,9 17,3 18 10 NW 1024,2 20 0,4
14.09.2019 12:00:00 21,9 16,6 8 4 N 1026,4 20 0,0
14.09.2019 11:00:00 21,4 16,6 11 6 N 1025,9 15 -
14.09.2019 10:00:00 19,4 15,9 5 3 N 1026,1 20 0,0
14.09.2019 09:00:00 18,1 15,5 11 6 N 1025,5 20 0,0
14.09.2019 08:00:00 16,8 15,0 11 6 NNW 1025,4 15 -
14.09.2019 07:00:00 16,5 15,4 8 4 N 1025,1 20 0,0
14.09.2019 06:00:00 16,7 15,2 11 6 N 1024,6 20 0,0
14.09.2019 05:00:00 16,1 15,1 9 5 N 1025,0 20 -
14.09.2019 04:00:00 16,3 15,3 9 5 N 1025,2 19 0,0
14.09.2019 03:00:00 16,7 16,1 11 6 N 1026,0 18 0,0
14.09.2019 02:00:00 17,2 16,6 11 6 N 1026,3 11 -
14.09.2019 01:00:00 17,5 16,9 8 4 NNE 1027,0 4,0 0,0
14.09.2019 00:00:00 17,9 17,1 9 5 NNW 1026,9 16 1,0
13.09.2019 23:00:00 18,3 17,3 9 5 NW 1029,4 3,7 -
13.09.2019 22:00:00 18,8 17,1 4 2 SSE 1029,5 1,8 8,0
13.09.2019 21:00:00 21,4 17,6 13 7 S 1028,1 16 0,2
13.09.2019 20:00:00 22,9 15,5 8 4 E 1026,2 12 -
13.09.2019 19:00:00 24,7 16,4 9 5 S 1025,8 20 0,0
13.09.2019 18:00:00 25,6 15,3 9 5 SE 1025,8 20 0,0
13.09.2019 17:00:00 25,5 14,0 8 4 E 1026,1 15 -
13.09.2019 16:00:00 26,7 16,0 4 2 SE 1025,4 20 0,0
13.09.2019 15:00:00 25,4 15,7 4 2 WNW 1027,1 20 0,0
13.09.2019 14:00:00 24,0 15,8 5 3 WSW 1027,8 8 -
13.09.2019 13:00:00 21,9 17,9 4 2 W 1028,3 16 0,6
13.09.2019 12:00:00 21,2 17,8 4 2 WNW 1028,6 20 0,8
13.09.2019 11:00:00 22,2 15,5 9 5 SSW 1029,4 1,0 -
13.09.2019 10:00:00 21,3 14,2 4 2 E 1027,0 20 0,0
13.09.2019 09:00:00 20,2 14,1 5 3 NW 1025,3 20 0,0
13.09.2019 08:00:00 21,5 9,7 11 6 NW 1025,1 20 -
13.09.2019 07:00:00 20,0 11,2 13 7 NNW 1025,9 20 0,0
13.09.2019 06:00:00 18,1 14,2 9 5 NNW 1027,1 20 0,0
13.09.2019 05:00:00 18,3 15,2 5 3 N 1026,8 19 -
13.09.2019 04:00:00 18,2 15,3 4 2 NNE 1027,1 20 0,0
13.09.2019 03:00:00 18,3 15,5 8 4 N 1027,3 20 0,0
13.09.2019 02:00:00 18,8 15,3 9 5 N 1027,6 20 -
13.09.2019 01:00:00 19,4 16,1 5 3 N 1028,6 20 0,0
13.09.2019 00:00:00 20,0 15,6 2 1 SSE 1028,7 20 0,0
12.09.2019 23:00:00 20,8 16,0 4 2 S 1028,5 20 -
12.09.2019 22:00:00 21,8 16,3 8 4 WSW 1027,9 20 0,0
12.09.2019 21:00:00 22,6 15,9 9 5 WSW 1027,4 20 0,0
12.09.2019 20:00:00 24,5 16,0 8 4 SSE 1027,4 15 -
12.09.2019 19:00:00 27,0 14,7 11 6 S 1027,0 20 0,0
12.09.2019 18:00:00 28,8 13,5 16 9 SSE 1026,6 20 0,0
12.09.2019 17:00:00 30,4 9,3 15 8 E 1025,8 15 -
12.09.2019 16:00:00 31,2 11,1 4 2 E 1025,9 20 0,0
12.09.2019 15:00:00 30,8 12,7 5 3 N 1026,3 20 0,0
12.09.2019 14:00:00 29,8 12,7 9 5 N 1027,2 15 -
12.09.2019 13:00:00 28,7 13,4 13 7 N 1027,5 20 0,0
12.09.2019 12:00:00 26,7 13,4 11 6 N 1028,2 20 0,0
12.09.2019 11:00:00 24,3 12,9 11 6 N 1028,2 15 -
12.09.2019 10:00:00 21,1 12,2 13 7 N 1028,1 20 0,0
12.09.2019 09:00:00 19,6 11,9 9 5 N 1027,5 20 0,0
12.09.2019 08:00:00 19,0 11,1 13 7 NNE 1026,3 15 -
12.09.2019 07:00:00 19,1 11,4 15 8 N 1025,8 18 0,0
12.09.2019 06:00:00 19,2 12,0 13 7 N 1025,6 20 0,0
12.09.2019 05:00:00 19,4 12,9 13 7 N 1025,7 13 -
12.09.2019 04:00:00 19,3 13,0 11 6 N 1025,3 20 0,0
12.09.2019 03:00:00 19,4 14,2 11 6 N 1025,3 20 0,0
12.09.2019 02:00:00 18,8 15,8 9 5 N 1025,1 20 -
12.09.2019 01:00:00 18,8 15,8 11 6 N 1024,2 20 0,0
12.09.2019 00:00:00 18,9 15,9 9 5 N 1024,3 20 0,0
11.09.2019 23:00:00 20,0 16,0 4 2 NE 1024,5 20 -
11.09.2019 22:00:00 21,1 15,9 9 5 W 1024,3 20 0,0
11.09.2019 21:00:00 21,9 15,5 4 2 W 1024,0 20 0,0
11.09.2019 20:00:00 22,7 15,5 8 4 E 1023,2 8 -
11.09.2019 19:00:00 23,4 16,2 13 7 E 1022,5 20 0,0
11.09.2019 18:00:00 23,7 16,2 8 4 E 1022,0 20 0,0
11.09.2019 17:00:00 22,7 16,5 4 2 N 1021,5 10 -
11.09.2019 16:00:00 23,2 16,5 9 5 N 1021,1 20 0,0
11.09.2019 15:00:00 21,2 17,2 13 7 N 1021,2 20 0,2
11.09.2019 14:00:00 19,6 16,8 11 6 N 1021,3 10 -
11.09.2019 13:00:00 16,3 15,5 13 7 N 1021,3 19 0,4
11.09.2019 12:00:00 15,8 15,2 9 5 N 1021,0 7 2,0
11.09.2019 11:00:00 15,5 14,4 13 7 N 1020,1 5 -
11.09.2019 10:00:00 14,7 14,1 13 7 N 1018,7 18 0,2
11.09.2019 09:00:00 13,9 13,3 13 7 N 1017,8 7 2,0
11.09.2019 08:00:00 13,9 13,1 13 7 N 1016,5 3,0 -
11.09.2019 07:00:00 14,4 12,9 15 8 N 1015,0 14 1,0
11.09.2019 06:00:00 15,7 12,1 13 7 NNE 1013,9 17 0,4
11.09.2019 05:00:00 15,9 11,9 13 7 N 1013,6 19 -
11.09.2019 04:00:00 15,4 12,2 8 4 NNE 1014,2 20 0,2
11.09.2019 03:00:00 14,7 12,6 9 5 N 1014,3 18 0,0
11.09.2019 02:00:00 14,8 13,5 9 5 N 1014,5 15 -
11.09.2019 01:00:00 15,6 13,4 8 4 N 1014,5 9 0,8
11.09.2019 00:00:00 17,2 12,1 11 6 NNE 1013,9 14 0,2
10.09.2019 23:00:00 17,1 12,0 9 5 NNW 1013,3 19 -
10.09.2019 22:00:00 16,1 12,1 9 5 N 1013,1 20 0,0
10.09.2019 21:00:00 15,5 13,0 8 4 N 1012,5 20 1,0
10.09.2019 20:00:00 18,5 10,8 8 4 N 1012,3 8 -
10.09.2019 19:00:00 19,9 7,3 21 11 WNW 1011,2 20 0,0
10.09.2019 18:00:00 23,7 6,9 15 8 NNW 1010,1 20 0,0
10.09.2019 17:00:00 24,9 5,6 16 9 NW 1009,4 8 -
10.09.2019 16:00:00 24,2 5,5 24 13 NW 1009,7 20 0,0
10.09.2019 15:00:00 25,6 5,7 21 11 NNW 1010,0 20 0,0
10.09.2019 14:00:00 24,4 5,7 18 10 NNW 1010,1 10 -
10.09.2019 13:00:00 22,8 5,7 22 12 N 1010,6 20 0,0
10.09.2019 12:00:00 20,2 5,8 13 7 NNW 1010,8 20 0,0
10.09.2019 11:00:00 19,1 5,9 18 10 NNW 1010,7 20 -
10.09.2019 10:00:00 18,5 6,7 22 12 NNW 1010,4 20 0,0
10.09.2019 09:00:00 19,1 6,6 22 12 NW 1010,1 20 0,0
10.09.2019 08:00:00 19,7 7,1 16 9 NNW 1009,7 10 -
10.09.2019 07:00:00 20,2 8,8 16 9 N 1009,0 20 0,0
10.09.2019 06:00:00 20,7 8,7 15 8 NNW 1008,5 20 0,0
10.09.2019 05:00:00 21,6 7,8 22 12 NW 1008,0 20 -
10.09.2019 04:00:00 22,5 7,5 24 13 NW 1008,0 20 0,0
10.09.2019 03:00:00 23,8 9,4 21 11 NW 1007,9 20 0,0
10.09.2019 02:00:00 22,1 18,3 8 4 N 1009,1 20 -
10.09.2019 01:00:00 22,6 19,0 8 4 NW 1009,8 20 0,0
10.09.2019 00:00:00 22,6 19,0 5 3 SE 1010,3 20 0,0
09.09.2019 23:00:00 23,1 18,8 8 4 SSE 1010,9 20 -
09.09.2019 22:00:00 23,6 19,1 9 5 SSE 1011,4 20 0,0
09.09.2019 21:00:00 24,3 18,9 8 4 SSE 1011,5 20 0,0
09.09.2019 20:00:00 25,0 18,2 8 4 SE 1011,8 8 -
09.09.2019 19:00:00 26,3 18,7 11 6 SE 1011,8 20 0,0
09.09.2019 18:00:00 27,2 18,2 15 8 SE 1011,9 20 0,0
09.09.2019 17:00:00 29,1 17,6 13 7 SE 1012,3 5 -
09.09.2019 16:00:00 29,6 16,4 13 7 SSE 1013,0 20 0,0
09.09.2019 15:00:00 31,1 14,7 15 8 SSE 1013,7 20 0,0
09.09.2019 14:00:00 30,4 12,3 11 6 SSE 1014,9 10 -
09.09.2019 13:00:00 27,5 10,2 4 2 SSE 1015,8 20 0,0
09.09.2019 12:00:00 25,7 8,2 5 3 NNW 1016,7 20 0,0
09.09.2019 11:00:00 24,7 7,8 9 5 N 1017,1 20 -
09.09.2019 10:00:00 21,1 7,0 13 7 N 1017,1 20 0,0

tt = temperature
td = dewpoint
ff = wind speed
dd = wind direction
ppp = reduced air pressure
vv = visibility
rr = precipitation

Next stations